Bookmark and Share
Track history (hours):
 

Amarant

Last reported at 2014-Apr-19 09:06 UTC. Time now 2014-Apr-23 15:18 UTC.
Position N 42°52' E 005°33'.

Length 14 m.

Type: Sailing vessel. MMSI: 261015190.

NotesDate/timePositionNaut miles runAvg speedWind from/ knotsBaromVisibWave heightAir tempDewpointWater temp
2014-Apr-19 09:06N 42°52' E 005°33'4 7.3
2014-Apr-19 08:33N 42°54' E 005°38'7 7.0
2014-Apr-19 07:34N 42°58' E 005°46'6 5.9
2014-Apr-19 06:33N 43°01' E 005°52'5 4.6
2014-Apr-19 05:28N 43°05' E 005°57'2 0.1
2014-Apr-18 10:09N 43°07' E 005°56'0 0.0
2014-Apr-18 08:15N 43°07' E 005°56'0 0.0
2014-Apr-18 07:03N 43°07' E 005°56'0 0.0
2014-Apr-18 06:03N 43°07' E 005°56'0 0.6
2014-Apr-18 05:22N 43°07' E 005°56'4 4.9
2014-Apr-18 04:33N 43°04' E 005°59'6 5.9
2014-Apr-18 03:33N 43°01' E 006°06'6 5.9
2014-Apr-18 02:34N 43°03' E 006°14'6 5.7
2014-Apr-18 01:33N 43°05' E 006°21'6 5.6
2014-Apr-18 00:32N 43°07' E 006°29'34 4.6
2014-Apr-17 17:12N 43°31' E 007°01'3 4.1
2014-Apr-17 16:31N 43°31' E 007°04'4 4.3
2014-Apr-17 15:33N 43°33' E 007°09'9 4.3
2014-Apr-17 13:31N 43°40' E 007°17'1 0.1
2014-Apr-16 22:27N 43°42' E 007°17'0 0.0
2014-Apr-16 20:03N 43°42' E 007°17'0 0.0
2014-Apr-16 19:33N 43°42' E 007°17'0 0.0
2014-Apr-16 13:16N 43°42' E 007°17'1 0.1
2014-Apr-16 05:33N 43°41' E 007°18'83 5.7
2014-Apr-15 15:03N 44°25' E 008°55'0 0.0
2014-Apr-15 14:33N 44°25' E 008°55'0 0.0
2014-Apr-15 12:34N 44°25' E 008°55'0 0.0
2014-Apr-15 10:34N 44°25' E 008°55'0 0.0
2014-Apr-15 09:34N 44°25' E 008°55'5 0.5
2014-Apr-14 23:33N 44°20' E 008°55'6 5.9
2014-Apr-14 22:34N 44°14' E 008°56'6 6.0
2014-Apr-14 21:33N 44°08' E 008°59'6 6.1
2014-Apr-14 20:32N 44°03' E 009°03'6 6.1
2014-Apr-14 19:34N 43°57' E 009°06'6 6.3
2014-Apr-14 18:33N 43°51' E 009°09'6 6.3
2014-Apr-14 17:33N 43°45' E 009°11'6 6.1
2014-Apr-14 16:32N 43°39' E 009°14'6 6.0
2014-Apr-14 15:33N 43°34' E 009°16'  

Dump ship's entire track history

sailing weather and tide predictions

Amarant — SPG3207 — position and weather